Location: Quaker Farms
(41.4276°N, 73.1557°W)
Time: 20:46:11
(UTC+00:00)

S-56A Canister/Altair - Pass Details

Date: 18 June 2021
Orbit: 631 x 2501 km, 38.9° (Epoch: 30 July)

Event Time Altitude Azimuth Distance (km) Brightness Sun altitude
Rises 11:26:53 0° 260° (W) 2,936 9.9 21.2°
Reaches altitude 10° 11:29:00 10° 257° (WSW) 2,084 9.3 21.6°
Maximum altitude 11:33:38 67° 175° (S) 830 8.0 22.4°
Drops below altitude 10° 11:39:49 10° 94° (E) 2,760 12.1 23.6°
Sets 11:43:00 0° 92° (E) 3,988 12.5 24.2°
